Stündliche Wetter Abez

Heute, 5 August, Donnerstag

Zeit Temperatur Niederschläge Wind Luftdruck Luftfeuchtigkeit
00:00 +19°C° 0 mm 3 m/S 749 mmHg 77%
01:00 +19°C° 0 mm 2 m/S 749 mmHg 80%
02:00 +19°C° 0 mm 2 m/S 749 mmHg 81%
03:00 +20°C° 0 mm 1 m/S 749 mmHg 82%
04:00 +20°C° 0 mm 1 m/S 749 mmHg 82%
05:00 +19°C° 0 mm 2 m/S 749 mmHg 80%
06:00 +20°C° 0 mm 2 m/S 749 mmHg 78%
07:00 +21°C° 0 mm 3 m/S 749 mmHg 76%
08:00 +21°C° 0.1 mm 3 m/S 749 mmHg 76%
09:00 +21°C° 0.1 mm 3 m/S 750 mmHg 77%
10:00 +21°C° 0 mm 3 m/S 750 mmHg 78%
11:00 +22°C° 0.3 mm 4 m/S 750 mmHg 75%
12:00 +23°C° 0.3 mm 4 m/S 749 mmHg 72%
13:00 +25°C° 0.3 mm 4 m/S 749 mmHg 69%
14:00 +25°C° 0.5 mm 4 m/S 750 mmHg 71%
15:00 +23°C° 0.5 mm 4 m/S 750 mmHg 72%
16:00 +23°C° 0.5 mm 4 m/S 750 mmHg 73%
17:00 +22°C° 0.4 mm 5 m/S 750 mmHg 80%
18:00 +20°C° 0.4 mm 5 m/S 750 mmHg 86%
19:00 +19°C° 0.4 mm 6 m/S 750 mmHg 92%
20:00 +19°C° 0.3 mm 5 m/S 750 mmHg 94%
21:00 +17°C° 0.3 mm 5 m/S 750 mmHg 95%
22:00 +18°C° 0.3 mm 4 m/S 750 mmHg 97%
23:00 +17°C° 1.3 mm 4 m/S 750 mmHg 97%

Morgen, 6 August, Freitag

Zeit Temperatur Niederschläge Wind Luftdruck Luftfeuchtigkeit
00:00 +15°C° 1.3 mm 4 m/S 750 mmHg 97%
01:00 +15°C° 1.3 mm 4 m/S 751 mmHg 98%
02:00 +14°C° 1.6 mm 4 m/S 751 mmHg 98%
03:00 +14°C° 1.6 mm 4 m/S 751 mmHg 98%
04:00 +14°C° 1.6 mm 4 m/S 751 mmHg 98%
05:00 +14°C° 1.8 mm 3 m/S 752 mmHg 97%
06:00 +14°C° 1.8 mm 3 m/S 752 mmHg 97%
07:00 +14°C° 1.8 mm 3 m/S 752 mmHg 97%
08:00 +14°C° 0.6 mm 3 m/S 752 mmHg 96%
09:00 +14°C° 0.6 mm 4 m/S 753 mmHg 95%
10:00 +14°C° 0.6 mm 4 m/S 753 mmHg 94%
11:00 +14°C° 0.4 mm 4 m/S 753 mmHg 94%
12:00 +14°C° 0.4 mm 4 m/S 753 mmHg 93%
13:00 +14°C° 0.4 mm 4 m/S 753 mmHg 93%
14:00 +13°C° 1.1 mm 4 m/S 754 mmHg 94%
15:00 +13°C° 1.1 mm 4 m/S 754 mmHg 94%
16:00 +13°C° 1.1 mm 4 m/S 754 mmHg 95%
17:00 +12°C° 0.8 mm 4 m/S 755 mmHg 96%
18:00 +12°C° 0.8 mm 4 m/S 755 mmHg 96%
19:00 +12°C° 0.8 mm 4 m/S 755 mmHg 97%
20:00 +12°C° 0.1 mm 4 m/S 756 mmHg 97%
21:00 +11°C° 0.1 mm 4 m/S 756 mmHg 97%
22:00 +11°C° 0.1 mm 4 m/S 756 mmHg 97%
23:00 +11°C° 0.1 mm 4 m/S 756 mmHg 97%

übermorgen, 7 August, Samstag

Zeit Temperatur Niederschläge Wind Luftdruck Luftfeuchtigkeit
00:00 +11°C° 0.1 mm 3 m/S 756 mmHg 97%
01:00 +11°C° 0.1 mm 3 m/S 756 mmHg 97%
02:00 +11°C° 0 mm 3 m/S 756 mmHg 97%
03:00 +10°C° 0 mm 3 m/S 757 mmHg 97%
04:00 +10°C° 0 mm 3 m/S 757 mmHg 97%
05:00 +11°C° 0 mm 3 m/S 757 mmHg 96%
06:00 +11°C° 0 mm 3 m/S 757 mmHg 96%
07:00 +11°C° 0 mm 3 m/S 757 mmHg 96%
08:00 +11°C° 0 mm 3 m/S 757 mmHg 96%
09:00 +12°C° 0 mm 3 m/S 757 mmHg 95%
10:00 +12°C° 0 mm 3 m/S 757 mmHg 95%
11:00 +12°C° 0.2 mm 4 m/S 757 mmHg 95%
12:00 +13°C° 0.2 mm 4 m/S 757 mmHg 95%
13:00 +13°C° 0.2 mm 4 m/S 757 mmHg 95%
14:00 +13°C° 0.1 mm 4 m/S 757 mmHg 94%
15:00 +13°C° 0.1 mm 4 m/S 757 mmHg 94%
16:00 +14°C° 0.1 mm 5 m/S 758 mmHg 94%
17:00 +13°C° 0.1 mm 5 m/S 758 mmHg 94%
18:00 +13°C° 0.1 mm 5 m/S 757 mmHg 94%
19:00 +13°C° 0.1 mm 5 m/S 757 mmHg 94%
20:00 +13°C° 0.4 mm 5 m/S 757 mmHg 95%
21:00 +12°C° 0.4 mm 5 m/S 758 mmHg 96%
22:00 +12°C° 0.4 mm 4 m/S 758 mmHg 97%
23:00 +12°C° 0.2 mm 4 m/S 758 mmHg 97%

8 August, Sonntag

Zeit Temperatur Niederschläge Wind Luftdruck Luftfeuchtigkeit
00:00 +12°C° 0.2 mm 4 m/S 758 mmHg 97%
01:00 +12°C° 0.2 mm 4 m/S 758 mmHg 97%
02:00 +12°C° 0.1 mm 4 m/S 758 mmHg 97%
03:00 +12°C° 0.1 mm 3 m/S 757 mmHg 97%
04:00 +12°C° 0.1 mm 3 m/S 757 mmHg 97%
05:00 +12°C° 0 mm 3 m/S 758 mmHg 96%
06:00 +13°C° 0 mm 4 m/S 758 mmHg 94%
07:00 +13°C° 0 mm 4 m/S 758 mmHg 93%
08:00 +13°C° 0 mm 3 m/S 758 mmHg 91%
09:00 +14°C° 0 mm 3 m/S 758 mmHg 90%
10:00 +14°C° 0 mm 3 m/S 757 mmHg 88%
11:00 +16°C° 0 mm 3 m/S 758 mmHg 87%
12:00 +16°C° 0 mm 2 m/S 758 mmHg 86%
13:00 +17°C° 0 mm 2 m/S 758 mmHg 85%
14:00 +17°C° 0.1 mm 3 m/S 758 mmHg 85%
15:00 +17°C° 0.1 mm 3 m/S 758 mmHg 85%
16:00 +17°C° 0.1 mm 3 m/S 758 mmHg 85%
17:00 +16°C° 0.3 mm 3 m/S 758 mmHg 88%
18:00 +16°C° 0.3 mm 3 m/S 758 mmHg 91%
19:00 +14°C° 0.3 mm 3 m/S 758 mmHg 94%
20:00 +14°C° 0.5 mm 4 m/S 758 mmHg 94%
21:00 +14°C° 0.5 mm 4 m/S 757 mmHg 95%
22:00 +13°C° 0.5 mm 4 m/S 757 mmHg 95%
23:00 +13°C° 2.8 mm 5 m/S 757 mmHg 95%

9 August, Montag

Zeit Temperatur Niederschläge Wind Luftdruck Luftfeuchtigkeit
00:00 +12°C° 2.8 mm 5 m/S 757 mmHg 96%
01:00 +12°C° 2.8 mm 5 m/S 757 mmHg 96%
02:00 +10°C° 0.9 mm 5 m/S 757 mmHg 96%
03:00 +10°C° 0.9 mm 5 m/S 757 mmHg 96%
04:00 +11°C° 0.9 mm 4 m/S 757 mmHg 96%
05:00 +11°C° 0.2 mm 4 m/S 757 mmHg 96%
06:00 +11°C° 0.2 mm 3 m/S 758 mmHg 95%
07:00 +11°C° 0.2 mm 3 m/S 758 mmHg 95%
08:00 +13°C° 0.2 mm 3 m/S 758 mmHg 93%
09:00 +15°C° 0.2 mm 2 m/S 758 mmHg 91%
10:00 +16°C° 0.2 mm 2 m/S 758 mmHg 88%
11:00 +17°C° 0 mm 2 m/S 758 mmHg 83%
12:00 +19°C° 0 mm 2 m/S 758 mmHg 78%
13:00 +21°C° 0 mm 1 m/S 758 mmHg 73%
14:00 +22°C° 0 mm 1 m/S 758 mmHg 70%
15:00 +23°C° 0 mm 2 m/S 757 mmHg 67%
16:00 +24°C° 0 mm 2 m/S 757 mmHg 64%
17:00 +23°C° 0.3 mm 2 m/S 757 mmHg 67%
18:00 +23°C° 0.3 mm 2 m/S 757 mmHg 71%
19:00 +21°C° 0.3 mm 2 m/S 757 mmHg 74%
20:00 +20°C° 0 mm 2 m/S 757 mmHg 79%
21:00 +18°C° 0 mm 2 m/S 757 mmHg 83%
22:00 +17°C° 0 mm 2 m/S 757 mmHg 88%
23:00 +16°C° 0 mm 2 m/S 757 mmHg 87%

10 August, Dienstag

Zeit Temperatur Niederschläge Wind Luftdruck Luftfeuchtigkeit
00:00 +16°C° 0 mm 2 m/S 757 mmHg 87%
01:00 +16°C° 0 mm 2 m/S 757 mmHg 86%
02:00 +14°C° 0 mm 3 m/S 757 mmHg 86%
03:00 +14°C° 0 mm 4 m/S 757 mmHg 85%
04:00 +14°C° 0 mm 5 m/S 757 mmHg 85%
05:00 +15°C° 0 mm 5 m/S 757 mmHg 82%
06:00 +16°C° 0 mm 5 m/S 757 mmHg 78%
07:00 +17°C° 0 mm 5 m/S 758 mmHg 75%
08:00 +19°C° 0 mm 4 m/S 758 mmHg 69%
09:00 +20°C° 0 mm 4 m/S 758 mmHg 63%
10:00 +21°C° 0 mm 4 m/S 758 mmHg 58%
11:00 +22°C° 0 mm 5 m/S 758 mmHg 56%
12:00 +22°C° 0 mm 6 m/S 758 mmHg 55%
13:00 +22°C° 0 mm 7 m/S 758 mmHg 53%
14:00 +22°C° 0 mm 7 m/S 758 mmHg 55%
15:00 +21°C° 0 mm 7 m/S 758 mmHg 57%
16:00 +21°C° 0 mm 7 m/S 758 mmHg 59%
17:00 +20°C° 0 mm 6 m/S 759 mmHg 64%
18:00 +19°C° 0 mm 4 m/S 759 mmHg 69%
19:00 +18°C° 0 mm 3 m/S 759 mmHg 74%
20:00 +17°C° 0 mm 3 m/S 759 mmHg 74%
21:00 +17°C° 0 mm 3 m/S 760 mmHg 74%
22:00 +16°C° 0 mm 3 m/S 760 mmHg 73%
23:00 +14°C° 0 mm 3 m/S 760 mmHg 68%
Mehr zeigen

Wir brauchen deine Erlaubnis

Meteoprog und unser Service Anbieter werden persönliche Daten aufbewahren, so wie Cookies, Geräte Bezeichnung oder ähnliche Technologien von deinem Gerät und Prozess, so wie Persönliche Daten Inhalte und Werbungen, genauso wie social Media und den Verkehr zu analysieren.

  • Aufbewahrung und/oder Zugang zu deiner Geräte Informationen.

    Cookies, Geräte Bezeichnung oder andere Informationen, können aufbewahrt oder Zugang zu deinem Gerät erhalten, für den Grund, der oben angegeben wird.

  • Personalisierte Werbung und Inhalte, Messungen, Einblick in das Publikum und Produkt Entwicklung.

    Werbungen und Inhalte können personalisiert werden, basierend auf ein Profil. Mehr Daten können besser personalisierte Werbungen und Inhalte hinzufügen. Werbung und Inhalte können gezeigt und gemessen werden. Einblicke über das Publikum, welche die Werbung gesehen haben und den Inhalt, können abgeleitet werden. So wie Daten können genutzt werden, um es zu verbessern oder die Benutzer Erfahrung zu verbessern das System und die Software.

Wenn du “Ich stimme zu” klickst, erlaubst du uns, die Cookies zu benutzen die Geräte Bezeichnung, den Web oder ähnliche Technologien zu benutzen. Deine Settings, können in deinem Gerät bei deinem Browser geändert werden.

Für den bestimmten Zweck, berechtigten Interessen beruhen darauf, mehr als auf den Inhalt. Du kannst mehr darüber in unseren Privaten und Cookie Politik lesen.